Theta_e
293 293 294 293 293 293 292 292 293 293 293 293 293 293 293 294 295 296 297 298 298 299 300 301 301 302 302 302 303 304 304 306 308 310 312 313 315 316 319 323 327 330 332 337 340 342 342 343 343 344 344 346 345 345 346 346 344 343 344 346 346 347 346 344 341 343 342 342 343 343 343 344 343 343 342 341 340 340 339 338 337 337 337 336 336
292 292 292 291 291 291 291 291 291 292 292 291 292 292 292 293 294 295 296 296 297 298 299 299 300 301 301 302 302 303 303 304 306 307 309 310 312 313 314 318 323 328 330 333 337 341 342 343 343 343 344 344 347 345 345 346 346 344 344 346 346 343 343 344 342 342 341 341 342 342 343 343 342 342 342 341 340 339 338 338 337 337 337 336 335
291 290 290 290 290 290 290 290 290 290 291 291 291 291 292 292 292 293 294 295 296 297 298 298 299 300 300 301 301 302 302 303 304 305 306 307 309 311 313 314 319 323 327 331 334 336 338 341 342 343 343 343 344 348 347 348 348 346 344 343 343 343 342 343 343 343 342 342 342 342 343 342 342 341 341 340 339 339 338 338 337 337 337 336 335
290 289 289 289 289 289 289 289 289 290 290 290 290 291 291 291 292 293 293 295 295 297 298 297 298 299 300 300 301 301 301 302 303 303 304 305 307 308 310 311 313 318 323 328 332 335 337 339 339 340 342 342 343 343 344 344 343 344 345 344 342 341 343 344 340 341 341 342 342 342 342 341 341 341 340 340 339 338 338 337 338 337 337 337 335
288 288 289 288 288 288 288 288 289 289 289 289 289 290 290 290 290 291 292 293 294 295 297 297 297 298 299 299 300 300 301 301 302 302 302 304 305 306 307 309 311 312 316 322 327 331 334 336 338 339 340 341 341 343 343 344 343 341 345 345 344 342 341 341 340 341 341 342 342 342 341 342 341 340 340 340 339 338 337 337 338 337 337 336 334
288 288 288 287 287 287 287 287 288 288 288 288 288 288 288 288 289 289 290 290 291 293 294 295 296 297 298 298 299 299 300 300 301 301 302 302 303 304 305 307 308 310 314 317 322 325 329 332 335 337 338 338 340 341 342 343 343 343 342 344 344 344 345 345 344 343 342 341 341 342 341 341 341 340 340 339 338 338 337 337 337 337 336 335 334
288 287 287 286 286 286 286 286 287 287 286 287 287 287 287 287 288 288 288 289 290 291 292 293 294 295 296 298 298 299 299 299 300 301 301 302 302 302 303 304 307 309 313 316 315 319 323 328 332 334 337 338 338 339 341 342 343 343 344 342 346 345 342 343 345 345 343 345 343 341 340 340 340 340 340 339 338 337 337 337 336 336 335 334 333
287 286 286 286 285 285 285 286 286 286 286 286 286 286 286 287 288 288 287 287 288 288 289 289 291 293 295 296 297 298 298 298 299 300 301 301 301 302 302 303 304 306 307 309 314 320 320 323 327 330 333 335 338 338 340 342 342 343 343 339 345 344 342 341 342 343 343 341 340 340 340 340 340 339 339 339 338 337 337 336 336 335 335 334 332
286 286 285 285 285 285 285 285 285 285 285 285 285 286 286 286 287 287 287 286 286 287 287 288 289 290 293 295 296 297 297 298 298 299 300 300 300 301 302 302 303 303 304 306 307 310 317 320 323 325 326 329 333 337 339 340 341 342 344 342 346 345 344 341 341 341 341 340 340 340 340 339 339 339 339 338 337 337 337 336 335 334 333 333 332
286 285 285 285 285 284 284 284 284 284 284 284 284 285 286 286 285 287 287 286 286 286 286 287 289 289 291 292 294 295 296 297 298 298 299 298 300 300 301 302 302 302 303 305 307 310 318 321 319 319 318 322 329 333 336 338 339 341 343 344 342 342 342 340 340 340 341 340 340 340 339 339 339 339 339 338 337 337 336 336 335 334 334 333 331
285 285 284 284 284 284 284 284 284 283 283 283 284 285 285 285 285 285 286 286 285 286 286 287 288 289 290 292 294 295 296 297 298 298 298 299 300 300 301 301 301 301 302 303 305 307 310 321 326 328 326 318 325 330 333 335 336 338 341 343 345 342 340 340 341 340 339 339 339 339 339 339 339 339 338 338 337 336 336 336 335 334 333 331 331
285 284 284 284 283 283 283 283 283 283 282 282 283 283 284 284 283 283 283 284 285 286 287 287 288 290 291 292 294 295 296 297 297 298 298 299 299 300 299 300 301 301 302 303 304 306 308 312 322 327 328 325 321 323 327 330 331 335 337 339 344 344 343 342 340 341 339 340 340 339 339 339 338 338 337 337 337 337 337 335 334 333 332 333 331
285 284 283 283 283 283 283 283 283 282 282 282 283 283 283 283 282 282 282 282 283 286 287 288 287 287 290 291 292 295 295 295 295 296 297 298 299 299 299 299 300 300 301 302 303 305 308 310 316 324 327 328 326 319 320 322 323 329 334 337 340 345 344 341 339 340 339 339 338 339 338 338 339 338 338 337 337 337 336 335 335 334 333 332 332
284 284 283 283 282 282 282 282 282 282 282 283 282 282 282 282 282 281 283 282 282 285 286 287 286 286 286 287 290 292 294 295 295 296 297 298 298 298 298 298 299 299 300 301 302 304 306 309 313 320 326 327 328 328 326 323 322 325 332 336 339 342 344 345 343 342 339 339 338 337 338 338 338 338 337 337 336 336 335 334 335 333 333 331 330
284 283 283 282 282 282 281 282 282 282 281 281 281 281 281 281 281 280 280 282 282 284 285 288 286 288 288 286 285 287 291 293 295 295 296 297 298 298 298 299 299 301 301 301 302 303 305 307 311 317 324 326 327 328 328 320 323 318 323 328 333 339 342 344 344 343 343 338 338 338 338 338 339 337 337 337 336 335 335 335 334 333 332 332 332
283 283 283 282 282 281 281 281 281 281 281 280 280 280 281 281 281 281 281 279 281 281 284 285 285 285 283 286 286 286 283 288 290 293 296 295 296 296 297 297 298 299 299 301 307 308 308 308 308 314 320 325 327 328 327 328 321 311 312 318 322 332 339 343 343 343 343 341 339 337 338 338 338 338 337 337 336 336 334 335 334 333 332 331 330
283 283 282 282 282 282 281 281 281 281 281 280 280 280 280 281 281 280 280 279 279 280 282 284 284 286 285 284 284 284 284 287 288 289 293 293 295 296 297 298 299 299 299 299 300 300 301 306 313 314 319 324 326 327 327 327 327 323 320 310 314 322 331 340 343 343 343 342 340 339 339 338 337 337 338 337 336 336 335 334 334 332 333 333 331
282 282 282 282 281 281 281 280 280 280 280 280 280 280 280 280 280 280 280 281 280 279 279 283 283 284 286 286 287 284 284 287 286 282 292 293 293 295 295 295 296 296 296 297 298 301 304 306 307 314 320 323 325 327 327 327 324 328 327 327 316 320 324 331 340 343 343 342 340 341 341 338 337 338 337 337 336 335 335 334 333 333 332 331 331
281 281 281 281 281 281 281 280 280 280 280 280 279 279 280 280 280 280 280 281 281 279 279 280 282 283 284 285 286 287 288 286 283 285 282 287 292 292 293 295 296 296 296 298 299 299 299 301 303 306 309 321 324 326 327 327 322 320 316 317 318 320 323 325 329 336 341 340 340 340 339 339 338 337 336 336 336 334 334 334 333 332 332 332 331
280 281 281 281 281 280 280 280 280 280 280 279 279 279 280 280 280 280 280 280 280 279 279 280 278 279 282 282 284 285 287 287 287 285 284 282 285 291 293 293 294 294 294 294 295 296 297 300 303 305 309 314 321 324 325 326 327 327 321 315 318 320 322 324 325 326 331 335 340 340 341 341 339 339 336 335 334 335 334 334 333 333 332 332 331
280 280 280 280 280 280 280 279 279 279 279 279 279 279 279 279 279 279 279 279 280 280 279 279 279 279 279 280 281 282 284 285 286 287 284 283 282 285 287 292 293 294 294 296 297 298 299 299 300 304 307 308 313 321 324 326 326 327 321 317 317 320 322 323 323 322 324 327 333 336 338 340 339 339 338 336 335 334 333 333 333 333 332 331 331
279 279 279 280 279 280 279 279 279 279 279 279 279 279 279 279 279 278 279 278 279 279 278 279 280 280 280 280 279 280 280 281 283 284 285 286 282 283 286 287 287 290 294 295 296 297 298 298 299 300 301 305 309 316 323 324 326 326 323 315 316 318 320 322 323 323 322 323 326 330 335 335 339 340 340 337 337 335 334 333 333 332 332 331 331
278 278 279 279 279 279 279 278 278 279 278 278 278 278 278 278 278 278 278 278 278 278 278 279 280 280 280 280 279 280 280 279 280 282 283 283 283 284 286 287 288 288 292 295 295 296 297 298 298 300 302 304 305 308 315 325 319 320 316 316 316 317 319 321 322 323 323 324 325 327 329 331 333 335 337 337 337 335 334 334 333 332 332 331 330
277 277 277 278 278 278 278 278 277 278 277 278 278 278 278 278 278 278 278 278 278 278 278 278 279 279 279 279 279 279 279 280 282 283 282 282 283 282 284 286 287 289 292 295 297 296 296 297 297 298 299 301 302 306 308 318 323 313 315 314 316 317 319 321 320 322 322 321 322 326 328 329 329 329 332 335 336 336 335 333 333 332 332 331 330
276 276 276 277 277 276 277 277 277 277 277 277 278 278 278 278 278 278 278 277 277 277 277 277 278 277 278 279 279 279 280 282 283 283 284 284 283 281 283 286 284 286 290 293 293 295 296 296 297 298 299 300 302 305 310 314 322 315 311 316 313 316 317 319 320 320 321 320 321 324 324 325 326 328 331 332 333 334 335 334 333 333 332 331 330
275 275 276 276 276 276 277 276 277 277 277 277 277 278 278 277 277 277 277 277 277 277 277 277 277 277 277 276 276 277 277 279 281 283 282 282 281 281 281 283 285 285 289 291 293 292 294 296 297 297 298 299 301 304 307 312 317 313 307 318 316 313 315 319 320 320 320 320 321 321 320 321 324 325 327 332 333 332 333 334 333 333 333 332 332
275 275 276 276 276 276 276 276 276 277 277 277 277 277 277 277 277 277 277 277 277 277 276 277 276 276 277 276 277 277 278 280 281 280 282 281 281 282 281 279 281 285 286 290 291 292 292 294 297 296 297 298 300 302 303 307 310 311 306 317 323 311 313 316 319 320 319 319 319 319 318 319 320 324 324 327 330 330 332 332 332 333 332 332 331
275 275 275 275 275 275 275 275 276 276 276 277 277 277 277 277 276 277 276 277 276 276 276 276 276 276 276 277 277 277 278 278 279 279 280 281 281 282 282 281 278 278 284 286 289 290 294 292 294 297 297 298 299 301 301 304 310 309 305 319 323 319 311 314 317 319 319 319 319 318 318 318 319 321 322 322 324 325 326 328 327 327 325 324 324
274 274 274 275 275 275 275 275 275 276 276 276 276 276 277 276 276 276 275 276 276 276 276 275 276 276 276 276 277 277 278 279 279 279 280 280 281 281 282 281 281 279 280 283 287 288 291 293 290 294 299 301 303 307 309 311 310 311 318 319 323 325 315 312 315 318 319 319 319 318 318 318 318 319 319 321 322 322 323 322 322 322 323 323 323
273 274 274 274 274 274 274 274 274 275 275 276 276 276 276 275 276 275 276 276 275 275 275 275 275 276 276 275 276 275 276 276 277 278 279 279 279 280 281 282 283 281 282 282 285 290 290 293 293 292 296 298 301 302 304 306 305 310 317 320 322 324 315 311 313 316 318 318 318 319 318 318 317 317 317 318 319 320 322 321 321 321 323 324 325
273 273 272 272 273 273 273 273 273 274 274 275 275 275 275 275 275 275 275 275 275 274 275 275 275 275 275 274 275 275 277 278 278 278 279 280 281 282 282 284 284 285 285 285 283 289 293 290 293 296 296 299 301 301 301 302 302 306 314 320 321 315 310 312 308 314 316 316 317 317 317 316 316 316 316 316 319 320 321 320 320 320 321 323 325
272 272 272 272 272 272 272 272 272 273 273 274 274 274 275 274 274 274 274 274 274 274 274 274 275 275 274 274 274 275 276 276 276 276 276 277 278 279 280 281 283 285 286 287 286 286 292 292 293 295 298 297 298 298 298 300 301 298 310 319 320 310 315 319 308 311 313 315 316 316 316 315 315 316 315 316 317 319 319 319 320 320 320 322 324
271 271 271 271 271 272 272 272 272 272 272 273 274 274 273 273 273 273 273 273 273 273 273 273 274 274 273 274 274 275 275 275 275 275 275 275 277 278 281 282 282 284 286 287 286 288 291 294 294 294 296 297 296 298 298 299 299 301 303 315 320 318 319 319 316 307 311 313 314 315 315 315 315 315 315 315 316 317 318 319 318 318 319 321 322
271 271 271 271 271 271 271 271 271 271 272 272 272 273 272 271 271 271 272 272 272 272 272 272 272 273 273 273 273 274 275 274 274 274 276 278 279 280 281 281 282 284 287 288 287 287 288 292 292 295 295 297 295 298 297 298 299 300 302 310 318 318 318 318 318 315 309 311 313 314 314 314 315 315 315 315 316 317 317 317 317 316 318 319 319
270 270 270 270 270 270 269 269 269 270 270 271 271 271 270 270 269 270 270 270 271 271 271 271 271 272 272 272 273 273 274 273 273 273 274 274 275 275 277 280 282 284 287 290 289 287 288 290 293 292 294 295 295 295 297 299 299 300 300 304 314 316 317 318 317 317 309 311 313 313 313 313 314 314 314 315 315 315 316 316 316 315 316 317 318
269 269 269 269 268 268 267 267 268 268 268 269 269 269 269 269 268 268 269 269 269 270 270 270 271 271 271 271 272 272 273 272 272 272 273 274 274 275 276 278 281 283 285 289 291 289 290 289 291 292 293 293 294 296 298 299 299 299 300 302 312 315 316 316 316 315 311 311 312 312 312 312 313 313 313 313 314 314 315 314 314 314 314 314 315
267 267 267 267 266 266 266 266 266 267 267 267 267 267 267 268 268 267 268 268 268 269 269 269 271 270 270 271 271 272 272 271 271 272 272 272 273 275 278 281 282 283 286 289 290 290 289 288 290 292 293 293 295 295 297 296 297 298 300 302 308 313 315 316 316 313 308 310 310 310 311 311 312 312 313 313 313 314 314 313 313 313 313 313 313
265 265 265 265 265 265 265 265 265 265 266 266 266 266 266 267 267 267 267 267 267 268 268 269 269 270 270 270 271 271 271 271 271 271 272 272 273 274 276 278 281 283 285 287 290 290 290 289 290 289 292 292 291 293 295 296 296 295 297 300 306 311 313 314 315 313 312 312 312 312 309 310 310 311 312 312 313 313 313 313 312 311 310 310 311
264 263 264 264 264 264 264 264 265 265 265 265 265 265 266 266 266 266 266 267 267 267 268 268 269 270 270 271 271 271 271 271 271 271 271 271 272 273 275 276 277 277 279 283 288 289 289 289 289 290 290 292 292 291 294 297 297 297 296 296 301 306 310 312 311 313 313 313 310 308 310 311 309 311 310 311 312 312 312 312 311 310 308 309 310
262 262 263 263 263 264 264 264 264 264 264 265 265 265 266 266 266 266 266 267 267 267 268 269 269 270 270 271 271 271 272 272 272 272 272 272 272 273 274 276 277 277 278 282 286 288 288 288 288 288 290 290 291 293 295 295 294 295 297 297 299 304 307 310 311 310 311 312 312 312 308 308 308 310 308 309 310 310 310 309 309 308 306 309 310
262 262 262 262 262 262 263 264 264 264 264 265 265 265 266 266 267 267 268 268 268 268 268 269 270 270 270 271 271 272 272 274 275 275 275 275 273 272 274 276 278 280 280 281 284 286 287 287 286 288 288 289 290 291 291 292 292 293 296 298 300 306 308 308 309 311 311 310 310 311 312 312 311 312 312 312 313 309 309 307 307 304 306 308 310
261 262 262 262 262 262 262 263 264 264 265 265 267 271 272 269 269 270 270 270 270 270 270 270 270 271 271 271 271 274 275 276 276 277 277 278 278 277 275 276 276 278 279 281 284 286 286 285 285 286 286 286 288 290 291 292 295 296 295 296 297 304 307 306 306 307 310 311 309 309 311 313 312 311 312 312 312 309 312 312 312 309 306 308 309
260 261 261 262 262 263 263 264 264 264 265 265 269 272 273 274 271 270 270 270 271 271 271 271 271 272 272 272 272 273 275 275 275 277 278 278 279 279 280 281 281 279 278 278 280 285 285 285 286 286 285 286 287 289 290 293 295 295 296 297 298 303 303 302 300 303 309 311 309 308 308 310 312 310 311 311 311 312 312 312 308 306 307 308 309
260 261 261 262 263 263 264 263 263 264 264 268 271 272 273 274 274 271 270 270 271 271 272 272 272 273 273 273 274 274 274 274 274 274 276 278 279 279 280 281 282 283 284 282 281 282 285 285 285 285 286 286 286 287 288 290 293 296 297 298 298 302 303 302 302 301 306 311 309 307 307 308 311 311 310 311 312 312 312 310 307 307 307 309 309
260 260 261 262 262 263 263 263 263 264 264 268 271 272 273 274 275 274 271 271 271 271 272 273 273 273 273 273 274 274 275 277 276 275 275 275 278 279 279 280 282 283 284 285 286 284 285 285 285 285 286 286 286 286 288 288 291 293 297 297 299 302 304 303 302 303 306 310 309 306 305 307 309 307 309 311 311 312 310 307 307 307 308 308 308
260 261 261 262 262 262 262 262 263 263 263 267 271 272 273 274 275 275 272 272 272 272 272 273 273 274 274 274 274 274 275 275 275 275 275 275 275 275 275 276 277 280 284 285 285 286 287 286 286 285 287 288 286 287 288 290 288 286 289 295 298 301 303 304 305 306 308 312 308 306 303 304 307 308 308 310 309 310 310 308 306 307 308 308 308
260 260 261 261 261 261 261 262 262 262 263 269 271 273 273 274 275 275 272 272 271 271 272 273 274 275 275 275 275 275 275 275 276 276 275 275 275 275 275 276 279 281 282 283 285 286 287 288 287 287 288 288 288 288 289 290 289 289 289 290 297 302 304 304 305 305 307 310 309 306 301 303 307 307 307 308 308 309 308 307 306 306 307 307 308
261 261 261 261 261 261 261 261 261 261 263 269 271 272 274 275 276 272 271 271 271 271 272 273 274 274 275 276 276 276 276 276 277 279 279 277 275 274 274 275 276 279 283 286 288 288 288 289 289 288 288 289 289 289 289 290 290 291 289 290 292 298 301 300 300 302 304 307 307 305 302 302 305 306 306 307 307 307 305 306 305 306 307 307 307
260 260 260 260 261 261 261 261 261 261 262 266 271 273 274 275 274 271 271 271 271 271 272 273 273 273 274 274 275 275 276 276 278 280 280 280 276 275 275 275 278 280 281 283 285 287 289 289 289 290 290 290 291 291 291 292 290 290 287 286 286 293 300 299 298 301 302 304 305 306 303 300 303 305 303 303 304 303 304 305 306 306 306 307 307
259 259 260 260 261 261 261 261 261 261 262 266 271 273 274 275 274 271 271 271 271 271 272 272 273 273 274 276 277 276 276 277 279 280 281 279 277 276 276 276 276 277 279 281 283 285 286 288 289 289 290 290 290 291 291 291 291 291 287 285 287 290 297 300 298 300 302 302 303 304 302 300 302 303 301 300 299 300 303 304 305 306 304 305 306
259 259 260 260 260 261 261 261 265 264 263 266 271 272 274 275 273 272 271 271 270 271 271 271 273 273 273 275 277 277 277 278 281 281 281 280 277 277 277 277 277 277 279 282 282 283 284 285 286 287 287 288 288 288 288 290 290 290 290 288 288 288 295 299 300 300 299 300 301 303 301 298 299 299 299 298 298 295 300 301 302 304 305 305 306
Wind_Speed
7 7 6 7 7 7 7 7 7 8 8 8 8 9 8 8 8 8 8 8 8 8 8 9 8 9 9 11 11 11 10 10 10 9 9 9 10 11 14 16 17 18 22 25 26 26 26 27 27 27 27 26 25 26 26 27 26 27 28 28 28 29 24 25 24 27 27 25 25 26 26 27 27 26 26 25 25 24 24 24 24 25 25 25 24
6 6 6 6 6 6 6 7 7 7 8 8 8 8 9 9 9 9 9 9 9 9 9 9 9 9 9 10 11 11 10 10 10 10 9 9 10 11 15 15 16 19 21 25 28 26 27 27 28 29 28 27 26 27 28 28 28 27 28 23 26 24 29 28 26 25 25 25 27 28 26 26 26 28 27 26 25 24 25 25 26 26 25 25 25
6 7 6 6 6 6 7 7 7 7 7 7 8 8 8 8 9 9 9 9 9 9 9 10 10 9 9 10 11 11 11 11 11 11 11 10 9 10 13 17 17 17 18 20 24 25 26 26 28 29 29 28 28 28 30 27 28 28 29 30 25 29 27 25 25 29 28 31 29 27 27 27 27 27 27 26 26 25 25 25 26 26 25 24 24
7 7 7 7 6 6 6 6 7 7 7 8 9 8 8 9 10 9 10 9 9 8 8 9 10 10 10 11 11 11 11 11 11 12 11 11 10 10 11 12 17 18 18 20 23 25 25 25 28 28 28 28 29 28 28 28 29 32 28 30 30 29 30 27 24 23 24 29 28 28 25 25 26 27 27 27 27 26 26 25 25 25 24 24 23
6 7 7 6 6 6 6 6 6 7 7 9 10 8 7 8 8 8 9 9 9 9 9 8 10 10 10 11 10 11 11 11 12 12 12 12 11 10 11 11 13 17 19 18 21 24 24 24 25 29 29 29 29 29 29 29 29 32 33 33 31 33 33 29 29 30 26 29 27 27 27 27 27 27 27 27 27 27 26 26 26 25 24 23 22
6 7 6 6 6 5 5 5 6 7 7 7 7 7 7 8 8 8 8 8 9 9 10 10 9 9 10 10 10 11 11 12 12 12 12 12 12 12 11 11 11 11 12 17 18 20 24 23 24 25 28 30 30 30 30 29 29 30 33 32 31 30 32 34 36 33 32 34 31 29 28 28 28 28 28 28 28 27 27 27 27 26 25 23 23
6 6 6 6 5 5 5 5 6 7 6 6 7 7 7 8 8 9 8 8 8 9 10 10 11 12 11 10 11 11 11 12 12 13 13 13 12 13 12 12 11 11 11 12 15 18 21 23 23 24 26 28 31 31 32 30 28 30 31 33 29 29 28 28 29 29 25 27 29 31 30 28 29 29 30 30 29 28 27 27 26 25 24 23 22
5 6 6 6 5 6 5 6 7 6 6 7 7 7 7 7 7 8 9 9 9 10 9 11 11 12 11 11 11 11 11 12 13 13 13 13 13 13 12 12 12 11 12 12 13 15 18 20 22 23 24 26 27 30 32 32 30 30 30 29 31 32 33 33 32 31 29 31 30 31 29 28 29 28 28 29 29 28 28 27 25 25 25 24 26
5 5 5 6 5 6 5 6 6 6 6 6 6 6 7 7 7 7 7 9 10 12 11 10 11 12 12 13 12 12 12 11 13 13 13 14 15 14 13 13 13 15 14 13 14 14 17 21 21 23 24 25 26 27 29 33 32 30 31 32 31 28 28 33 35 33 31 29 30 32 31 30 29 30 28 29 30 30 28 28 25 25 25 25 25
5 5 5 5 5 5 5 6 6 6 6 6 6 6 6 7 8 7 8 9 9 10 12 11 11 12 12 13 13 12 12 13 13 13 13 15 14 14 14 13 13 14 13 14 14 14 14 16 21 23 24 25 27 27 29 30 33 32 30 32 31 30 31 29 30 31 31 29 30 31 30 30 31 32 31 30 31 31 30 29 28 28 25 25 27
5 5 5 5 5 4 5 6 5 5 6 6 6 6 6 7 8 9 8 8 9 10 11 12 13 13 14 15 14 15 13 13 14 13 14 15 15 15 13 14 14 14 14 15 14 15 16 15 12 11 15 25 26 26 28 30 30 31 31 32 32 31 34 31 32 32 30 30 30 30 31 31 31 30 29 29 31 32 31 28 27 28 28 28 28
5 5 6 6 5 5 6 6 6 6 6 7 7 7 9 10 9 10 11 9 8 9 10 12 13 14 16 16 15 15 16 14 15 15 14 15 15 13 14 13 13 14 15 14 14 15 16 16 14 13 15 18 24 25 26 27 27 30 32 31 32 31 31 26 33 31 28 26 30 31 33 32 32 32 33 32 30 29 27 29 29 30 31 29 29
5 5 6 6 5 5 6 6 6 7 7 7 8 9 8 8 9 8 10 10 8 7 9 10 13 14 11 14 15 12 16 16 17 15 15 14 13 14 14 14 14 15 15 14 15 16 16 16 16 15 14 14 17 22 25 25 26 27 30 31 31 32 34 35 33 34 29 28 27 28 31 33 32 33 33 35 31 29 29 29 31 31 31 31 31
6 5 6 6 6 6 6 7 7 7 7 8 9 9 9 8 8 10 6 9 9 7 9 9 9 9 15 16 15 12 14 16 15 13 15 14 14 14 14 14 15 14 13 14 15 16 16 16 16 16 15 15 16 16 14 18 22 29 28 32 33 34 35 33 32 33 32 32 37 36 32 33 34 35 37 34 35 32 32 34 31 31 29 30 31
6 6 5 5 6 6 6 6 6 7 8 8 8 9 8 9 9 8 11 7 9 7 8 6 10 10 12 14 15 16 10 8 10 12 12 11 11 12 12 13 15 13 13 14 14 15 15 16 17 17 17 16 15 16 17 15 17 25 29 29 30 33 36 36 35 35 32 35 38 35 37 34 35 39 38 35 36 35 36 34 33 32 33 32 32
7 7 6 5 6 6 6 6 7 7 8 9 8 8 8 8 8 9 8 13 7 8 5 7 8 10 9 4 11 11 18 6 2 8 8 12 14 14 13 14 15 15 14 15 14 15 15 16 18 18 18 17 15 15 18 19 20 22 26 28 29 30 35 38 37 38 37 38 41 37 40 33 39 38 38 35 35 35 35 32 35 35 31 31 32
7 7 7 7 6 6 7 7 8 8 7 8 8 8 8 8 9 9 9 9 13 9 8 6 9 8 10 11 9 7 10 15 17 17 9 11 14 13 11 12 12 11 11 12 12 13 15 17 18 19 19 17 17 16 17 20 15 15 19 25 28 30 31 36 39 37 35 35 37 42 38 38 37 40 38 37 36 36 37 37 35 36 34 34 32
7 8 7 7 7 7 7 8 8 8 8 8 9 9 9 9 8 9 10 10 11 13 11 7 9 10 13 13 12 12 14 14 13 18 8 9 15 13 15 16 16 16 15 16 16 14 12 13 15 18 19 19 17 16 16 18 19 14 12 17 28 30 31 32 35 37 35 35 38 36 36 38 38 37 37 37 36 38 38 38 36 34 34 35 36
8 7 7 7 7 7 7 7 8 8 8 9 9 10 9 9 8 8 9 10 10 13 14 11 9 11 11 15 17 17 18 14 14 14 21 14 9 14 14 12 12 14 15 15 15 15 15 14 14 15 18 20 19 15 15 19 21 20 21 21 24 28 31 32 32 32 33 36 37 38 36 36 39 40 40 39 36 39 37 36 35 35 34 35 37
8 7 7 7 7 7 7 8 8 9 9 9 9 9 9 9 9 10 10 10 11 12 14 12 11 11 8 12 15 17 18 20 21 17 18 21 21 13 16 20 17 17 19 20 20 18 19 16 15 13 13 16 19 20 19 17 17 17 16 23 22 25 28 30 32 34 32 32 35 38 41 42 41 41 41 34 38 37 38 35 33 32 34 36 35
7 8 7 7 7 8 8 8 9 9 9 10 10 10 11 12 11 10 10 10 10 12 13 14 12 13 12 13 13 14 14 16 18 18 17 18 23 22 19 14 17 17 17 17 17 16 16 16 16 15 13 14 16 18 19 15 16 19 19 24 24 25 27 29 29 29 32 31 30 34 37 41 43 43 41 38 35 38 40 38 37 37 38 38 36
7 7 8 7 8 8 9 9 10 10 10 11 12 12 12 12 12 11 11 13 11 12 14 13 13 14 13 12 13 12 13 14 16 17 18 19 22 22 19 20 20 17 14 16 18 16 16 16 17 16 16 15 14 15 19 20 15 16 21 25 26 26 26 28 29 30 32 30 30 33 33 34 40 40 40 42 38 38 38 37 38 38 39 37 37
7 7 7 8 8 8 9 10 10 10 11 11 12 11 11 11 11 13 13 14 12 13 15 16 14 15 16 13 14 14 13 14 15 15 16 17 17 19 18 17 18 21 17 16 17 18 17 15 15 15 14 14 13 14 16 18 20 21 23 25 26 27 27 28 29 29 31 33 32 33 35 36 37 40 38 39 41 40 42 39 38 38 37 37 38
7 7 7 7 8 9 10 11 11 11 11 10 11 11 12 12 12 11 11 12 13 13 14 15 16 15 17 16 16 15 16 17 16 16 16 17 17 19 15 16 17 17 17 16 16 17 17 17 16 15 15 14 14 13 15 18 19 25 21 25 26 28 29 29 30 30 31 30 28 32 35 35 36 35 35 37 42 41 41 42 39 39 37 37 39
7 8 9 9 9 10 10 10 11 10 11 12 12 13 13 13 13 13 13 14 13 14 13 16 16 15 14 16 15 14 16 15 16 16 17 17 17 19 18 16 18 17 17 17 14 16 15 14 14 13 14 15 14 13 13 15 15 19 24 20 29 29 29 30 29 31 31 31 32 33 31 26 31 32 34 35 41 44 45 41 40 40 40 38 42
10 10 9 11 10 11 12 13 12 13 13 13 13 13 13 13 13 14 14 14 13 16 18 18 19 19 19 18 18 17 18 18 18 16 15 13 14 17 16 15 17 20 16 15 15 17 15 13 14 13 14 13 13 14 13 14 17 21 24 21 23 27 29 30 31 30 31 31 32 31 30 31 30 33 35 37 39 43 44 41 42 42 40 40 41
9 10 11 12 12 12 12 13 13 13 13 13 13 13 14 13 14 15 17 15 17 17 16 19 17 20 19 17 17 17 17 16 15 17 16 17 17 15 14 20 17 16 16 14 15 21 20 11 10 13 14 14 13 13 14 13 17 23 20 21 18 28 27 29 30 31 31 31 32 32 32 35 36 36 35 38 39 36 35 40 44 43 43 42 39
10 10 11 11 12 13 13 13 14 13 13 14 14 13 13 14 14 16 19 14 16 20 17 17 20 20 21 19 17 18 17 18 18 18 18 18 17 16 14 16 19 19 15 17 15 19 15 13 12 12 13 13 14 13 16 16 16 20 20 17 17 20 28 30 31 31 32 32 33 32 33 36 36 40 45 42 41 42 42 41 41 41 37 35 34
10 9 11 11 11 12 13 13 13 13 14 14 14 15 15 16 16 17 18 17 18 19 19 16 19 16 16 19 16 17 17 19 17 17 19 18 18 18 16 16 16 20 19 18 16 20 10 10 12 11 8 10 9 9 10 11 13 15 14 17 18 17 24 31 31 31 32 33 33 33 34 35 36 36 39 45 43 42 39 39 37 37 38 36 34
10 10 11 12 12 13 13 13 13 13 14 14 14 15 15 16 16 17 17 17 17 17 17 16 18 16 18 18 17 18 18 18 18 19 19 19 19 19 18 17 15 21 20 20 19 12 14 9 10 14 9 10 9 11 11 13 16 18 16 19 19 17 26 30 31 31 31 31 32 32 33 34 35 37 37 39 42 42 37 37 37 34 35 35 35
10 11 12 12 12 12 12 13 13 14 14 14 15 14 15 15 16 15 16 16 16 18 16 16 14 17 18 19 18 16 15 15 13 12 12 13 15 16 16 14 17 18 21 20 21 12 12 12 11 11 11 10 9 10 11 12 14 19 17 19 19 24 27 26 31 31 31 31 32 32 32 33 34 33 32 34 37 41 39 36 35 34 34 34 35
10 12 12 13 13 14 13 13 14 14 14 14 15 15 15 14 15 14 16 16 19 17 18 15 15 15 18 19 18 17 14 17 15 17 15 18 17 18 18 16 18 18 18 17 19 21 8 11 10 11 10 12 12 12 14 12 12 17 17 20 21 24 20 17 29 32 32 32 33 33 35 35 36 37 35 33 32 34 38 36 34 34 33 32 33
11 12 12 13 13 13 14 14 14 14 15 15 13 14 14 15 14 16 17 18 18 19 15 19 17 17 17 19 19 20 18 20 17 17 17 20 20 18 16 16 16 17 16 18 18 18 13 10 11 11 9 9 13 11 14 13 13 14 15 19 20 18 17 17 18 31 32 33 33 34 36 40 40 39 40 37 34 33 32 34 34 33 33 34 32
11 12 13 12 12 13 14 14 14 15 15 15 15 13 15 15 16 13 14 16 17 18 17 18 17 15 16 18 19 18 18 20 19 18 15 14 15 15 15 14 15 16 16 17 17 15 20 8 13 9 9 8 13 10 10 13 14 13 16 17 17 17 17 16 16 20 34 32 34 35 34 35 39 40 40 40 37 37 35 33 33 32 32 33 31
11 10 12 12 13 13 14 14 15 15 15 15 14 14 15 16 17 16 15 16 17 17 18 19 18 16 18 17 18 17 16 18 19 18 17 18 16 18 19 15 14 16 16 18 18 17 18 15 12 13 9 9 10 11 9 11 13 13 16 18 15 14 15 17 16 17 33 34 37 36 36 36 35 37 37 37 34 34 37 36 35 33 30 31 32
11 11 11 13 13 13 14 14 14 15 15 15 15 15 15 16 17 18 17 17 17 18 18 19 18 16 17 17 17 17 17 19 19 17 17 17 16 15 17 18 17 19 18 18 18 14 12 15 10 10 7 9 10 9 9 9 12 13 13 16 16 15 15 16 17 16 31 42 40 40 38 35 35 34 34 33 33 31 31 32 34 34 32 31 31
11 11 11 11 12 12 12 14 15 15 15 15 16 16 15 15 17 18 18 17 17 18 18 18 18 18 18 17 17 17 17 19 18 17 16 20 17 18 17 14 13 15 14 16 15 11 12 15 12 8 9 9 9 10 8 10 12 12 12 14 15 12 17 16 15 15 26 40 42 41 40 39 36 34 35 33 34 32 31 31 32 32 32 32 31
11 11 12 11 11 13 13 14 15 16 15 15 16 17 17 17 17 17 17 17 17 17 18 18 18 17 17 17 17 17 18 18 17 17 17 19 18 17 18 16 14 13 15 16 14 11 12 13 12 10 9 10 9 9 7 7 10 13 13 13 15 12 14 17 16 16 14 13 16 23 27 30 34 34 31 31 32 32 31 30 30 30 30 31 31
11 12 11 12 12 12 15 15 16 17 18 16 17 17 17 17 18 18 17 17 17 16 17 18 17 17 17 17 17 17 17 18 19 19 18 19 17 19 18 17 15 15 16 17 14 11 10 12 11 10 9 9 9 11 5 7 10 12 13 13 14 9 9 17 17 16 17 17 16 18 18 19 23 24 28 29 30 31 31 30 30 31 30 29 29
10 11 12 13 13 14 15 16 15 15 17 18 17 17 18 17 17 17 17 17 18 18 19 18 18 18 18 18 18 18 19 19 18 19 18 18 16 18 17 15 15 15 15 16 14 11 10 11 12 11 10 10 9 9 7 6 9 11 11 11 15 10 10 10 17 18 16 19 17 17 17 18 19 22 26 26 27 27 29 28 30 29 31 29 29
9 10 12 13 16 15 14 15 16 16 16 15 14 14 16 18 17 18 18 19 18 18 19 19 18 18 18 18 18 19 19 25 29 26 25 22 17 17 17 15 15 13 13 14 15 10 8 8 8 6 7 6 8 7 7 7 10 13 9 8 15 12 11 13 11 17 19 19 19 18 17 17 16 14 14 14 17 23 23 26 25 30 30 29 29
9 10 12 13 13 14 15 16 15 14 14 13 16 26 25 19 20 18 18 18 18 18 16 18 17 18 18 19 17 26 29 29 29 30 30 30 31 24 19 17 16 17 15 14 13 9 7 8 9 9 10 9 8 6 7 9 10 10 11 11 16 12 13 14 13 12 18 20 18 19 18 17 19 17 16 16 16 19 16 17 17 21 27 30 30
9 10 11 13 13 14 15 14 15 14 13 14 26 27 28 30 23 19 18 18 18 19 19 17 19 17 17 17 17 21 24 27 26 31 29 30 29 30 31 31 27 20 16 17 16 9 8 8 9 9 9 9 8 7 9 9 8 10 12 12 14 13 14 16 14 12 16 23 19 19 17 17 19 19 18 17 17 16 16 17 23 25 28 28 29
9 9 11 12 13 13 13 15 16 15 16 21 27 28 29 29 27 21 18 17 17 16 18 16 18 16 19 18 18 16 15 16 18 18 23 28 28 29 29 29 30 33 31 21 17 14 11 8 8 10 10 9 8 7 8 8 9 10 12 12 14 14 14 16 15 16 13 21 21 19 18 15 17 19 19 18 18 17 18 20 27 28 28 28 29
9 11 11 12 12 13 14 16 16 16 17 23 28 30 29 29 30 26 18 17 16 17 17 18 18 18 18 18 19 16 18 24 24 19 21 20 26 31 30 31 32 32 31 32 31 21 14 13 12 13 11 8 9 9 6 8 10 13 11 12 13 15 15 16 14 16 18 20 21 20 20 17 17 18 18 17 16 15 17 22 25 27 29 28 29
10 10 11 13 13 13 14 15 16 15 16 22 29 30 30 30 29 26 19 18 17 17 18 18 17 19 18 20 17 18 17 18 16 20 18 17 18 17 17 17 18 23 27 30 31 31 24 16 14 13 13 8 11 8 6 6 7 10 12 13 12 15 16 19 18 18 19 21 22 19 16 16 16 17 17 15 15 15 14 22 29 29 29 29 29
10 10 11 12 12 12 12 13 13 14 14 27 30 31 30 30 30 27 17 16 15 15 16 17 18 17 20 19 19 18 20 18 16 18 18 16 15 16 16 18 16 15 17 17 17 16 16 16 16 15 14 12 11 9 9 9 10 9 10 15 18 16 16 12 17 19 20 20 22 21 21 18 16 18 17 15 15 15 14 21 28 29 30 29 29
9 9 11 11 12 12 13 13 14 15 15 27 30 30 31 30 31 18 15 15 15 15 15 16 17 16 16 17 18 17 18 18 21 28 26 18 15 16 16 17 17 18 13 11 14 15 15 14 12 12 12 13 12 10 10 11 11 10 11 14 17 18 15 13 15 17 19 17 21 20 17 17 16 18 16 13 14 14 13 14 26 30 31 30 29
11 10 11 11 11 12 13 12 14 15 14 22 29 30 30 31 26 16 16 14 14 15 16 16 16 16 16 18 18 18 19 19 23 27 27 26 16 17 16 16 16 14 13 11 16 20 21 22 22 19 21 21 19 20 21 24 17 13 8 11 15 15 14 15 15 19 19 16 14 18 17 17 16 16 14 13 15 14 15 15 17 27 30 31 31
11 11 11 11 10 10 13 15 13 15 14 21 30 31 30 30 25 16 14 13 13 15 16 16 15 15 17 27 24 20 19 19 24 28 29 24 17 16 16 16 17 16 14 12 10 11 19 22 21 21 23 22 23 25 26 26 25 18 9 15 15 13 15 16 15 15 15 16 16 16 18 16 14 14 14 8 7 5 12 13 15 20 28 27 31
11 11 11 11 11 10 12 14 21 22 16 18 26 29 30 28 23 15 14 13 16 15 16 17 15 15 16 19 27 25 22 22 29 28 29 24 16 16 14 15 17 17 15 13 12 12 11 11 11 12 14 17 16 14 15 22 22 19 15 15 13 14 17 16 21 18 17 14 13 17 20 14 15 14 16 13 13 3 8 11 14 14 15 16 20
Wind_Direction
357 356 350 358 356 355 351 351 349 348 345 343 344 338 334 331 326 323 321 316 313 309 308 303 301 302 300 299 297 298 296 294 292 292 288 289 289 289 288 286 282 278 276 270 263 259 260 259 259 258 258 256 244 238 231 233 232 234 230 225 224 219 212 201 198 202 199 200 198 192 189 184 180 177 174 173 173 172 171 172 171 174 173 170 168
354 352 350 350 350 350 350 351 346 345 345 340 340 334 331 328 327 323 319 316 312 307 306 301 299 295 295 295 295 295 294 294 292 292 291 288 287 289 290 288 284 281 276 270 267 259 255 257 259 259 258 258 250 240 237 230 231 230 231 227 227 221 218 210 200 201 198 202 196 197 187 185 181 178 174 173 173 172 172 175 175 176 175 172 170
354 350 346 346 346 349 350 345 342 345 340 334 332 330 326 325 324 323 320 315 309 306 305 301 295 292 290 290 292 291 291 291 291 289 289 288 287 287 287 286 284 279 276 272 265 261 261 257 259 260 260 259 255 248 240 233 229 230 230 231 226 222 217 215 205 200 198 199 194 196 189 186 181 178 173 174 173 173 172 173 177 177 175 174 170
354 348 342 340 342 344 342 345 342 337 337 332 327 323 320 317 318 319 315 312 309 307 304 301 297 293 289 285 285 287 288 289 289 289 287 287 285 285 284 286 285 280 272 267 267 262 255 253 255 258 259 260 260 254 247 241 241 236 228 227 226 223 217 208 214 216 202 199 195 193 194 188 183 179 174 173 173 173 172 172 176 178 176 174 174
346 340 334 330 334 337 344 341 337 334 329 327 323 321 320 318 316 317 316 317 313 312 309 300 297 296 293 289 286 281 282 284 285 286 285 284 284 281 278 280 280 281 275 265 261 261 254 251 252 255 257 258 258 256 251 244 232 237 232 228 226 226 222 218 217 217 207 203 196 195 194 187 186 181 175 173 175 173 173 173 176 176 178 178 168
337 332 330 327 326 331 334 334 333 330 325 325 324 323 319 320 319 318 315 312 308 307 309 306 301 297 295 295 289 287 284 280 278 279 282 282 282 279 278 276 277 279 281 274 259 253 256 249 249 251 254 257 257 257 254 249 242 232 235 231 227 227 225 214 209 204 205 204 197 194 192 191 187 182 176 175 175 174 175 175 177 177 177 177 168
331 329 324 321 319 323 329 333 329 324 322 322 318 316 316 317 320 320 314 309 305 305 302 297 296 295 292 292 290 291 287 284 282 276 273 276 276 277 277 276 273 275 274 274 267 254 249 249 243 243 248 249 251 253 254 251 242 237 235 232 225 224 225 221 213 203 208 201 198 193 194 192 189 185 178 176 175 175 176 178 180 179 176 173 169
326 323 315 317 320 325 330 328 329 325 322 318 318 314 315 311 309 313 315 312 313 307 303 296 292 289 287 286 284 283 284 284 282 279 278 275 270 271 274 275 276 274 277 277 276 271 256 247 243 241 241 244 245 247 250 251 248 240 236 234 226 222 223 221 219 221 209 212 200 198 193 194 189 185 182 177 176 176 177 179 180 176 173 173 173
311 309 311 313 318 322 320 323 324 322 316 317 311 313 313 311 308 309 307 305 305 301 303 299 296 292 289 283 282 282 279 278 277 278 279 272 274 271 268 270 274 272 270 266 267 268 260 250 245 241 241 243 242 243 246 249 250 246 241 235 231 226 223 225 217 215 213 208 201 196 191 188 188 186 184 179 176 176 176 178 176 174 174 177 178
303 307 306 305 306 308 313 318 320 318 315 311 306 304 303 309 310 310 311 306 305 305 301 298 296 295 290 284 281 276 277 276 275 275 272 272 271 270 271 272 267 269 271 269 267 264 264 254 244 240 238 239 242 239 242 246 247 248 244 237 234 232 223 221 219 217 212 203 202 198 195 189 188 188 184 182 179 176 176 177 174 171 171 181 182
302 303 305 306 303 305 310 317 315 314 313 310 310 310 312 312 310 311 309 302 300 298 296 296 295 290 289 287 281 276 274 272 274 272 270 270 269 268 267 267 270 267 264 266 265 263 263 262 254 242 235 232 240 238 238 242 244 245 245 239 230 228 232 223 221 215 212 204 199 196 194 193 190 187 186 182 181 175 176 173 171 172 174 176 181
291 298 296 302 310 316 321 324 325 322 321 322 320 324 321 319 315 313 309 301 292 292 297 298 295 293 290 284 277 277 273 269 270 266 267 267 267 267 265 265 265 266 263 259 263 262 259 260 255 245 247 236 230 237 234 236 240 242 242 242 238 228 228 221 221 215 207 206 200 196 197 194 192 188 186 185 184 177 170 172 174 174 174 172 177
281 288 294 300 305 314 321 325 326 323 318 314 315 312 313 313 310 307 306 307 301 295 294 301 305 300 285 282 286 273 272 270 267 266 265 263 263 265 262 262 259 261 262 262 259 259 258 254 251 246 240 244 238 229 230 233 235 238 240 240 240 234 223 220 222 220 212 205 203 197 200 194 189 189 185 183 179 175 173 172 174 178 174 174 177
281 286 293 301 311 318 320 318 323 315 306 302 304 305 306 309 314 310 301 304 300 304 301 308 298 303 315 314 300 292 266 255 254 259 255 255 257 257 260 260 259 261 262 264 261 258 258 256 251 246 241 237 240 242 226 226 231 233 236 236 236 238 231 216 213 217 216 208 205 199 194 193 191 190 188 183 181 177 174 176 176 176 171 177 182
276 281 286 291 295 300 302 306 306 308 308 306 304 304 305 307 309 307 309 295 286 291 294 293 294 302 294 296 300 322 301 243 245 240 249 256 260 262 262 264 268 268 268 267 265 264 261 257 254 248 244 236 235 236 238 224 221 223 229 233 232 235 235 227 217 215 216 213 206 204 198 193 189 190 187 183 182 181 179 178 176 175 176 180 179
286 286 284 285 296 299 304 305 306 306 302 301 300 295 300 303 304 300 301 303 297 292 280 290 287 307 304 262 301 311 303 302 31 284 254 262 267 267 268 269 271 270 272 271 272 271 265 261 257 252 245 239 235 233 237 238 224 219 219 225 227 230 232 229 224 216 219 216 214 202 196 191 191 188 185 181 181 181 180 177 180 179 177 179 181
283 281 287 293 294 293 295 299 299 299 298 294 295 294 295 293 293 292 291 292 299 292 286 271 271 258 269 298 300 266 250 289 323 291 269 266 259 256 263 272 280 288 283 278 277 280 284 280 272 259 249 239 236 232 233 235 228 222 218 219 220 224 229 229 224 221 216 215 214 207 198 190 188 189 184 182 182 181 181 179 179 180 178 177 178
275 282 282 289 292 291 292 296 297 296 295 293 291 294 290 289 289 289 286 279 281 294 288 270 266 259 250 251 251 276 301 302 315 297 309 248 274 262 265 267 272 275 273 275 276 277 275 275 280 280 263 245 238 230 229 232 231 220 211 214 215 218 222 227 223 216 217 213 211 206 196 192 187 186 185 184 184 183 179 180 181 179 181 181 180
276 274 281 277 278 279 279 280 281 283 285 284 282 282 285 284 287 284 282 284 280 280 283 286 283 260 255 254 257 261 266 284 282 295 294 291 237 270 266 260 266 271 275 272 276 281 281 277 274 274 280 269 240 228 228 231 227 225 217 212 209 213 217 220 222 219 215 215 210 208 198 192 188 189 187 184 181 181 179 180 184 179 178 181 182
282 280 277 279 280 279 277 279 281 282 284 280 279 280 282 279 277 278 281 275 271 272 282 281 278 279 260 263 266 264 261 260 260 266 278 288 290 267 265 274 270 264 265 265 264 265 271 272 272 270 273 274 261 237 230 226 224 221 218 215 211 206 211 215 215 214 220 217 210 210 205 199 192 188 188 184 181 176 178 177 180 183 181 181 181
278 284 282 283 284 285 284 283 284 285 286 283 280 280 278 279 278 276 272 273 268 271 275 275 273 272 281 269 265 264 265 262 263 259 261 277 277 280 281 275 275 267 264 262 262 260 266 271 272 275 270 276 278 260 233 223 220 224 219 211 210 209 208 212 213 207 211 218 212 205 206 202 196 191 185 182 181 179 180 179 181 183 182 182 181
288 283 286 286 286 287 286 284 284 285 286 283 283 282 279 275 271 270 270 272 271 269 269 272 272 274 268 272 271 268 266 266 259 258 261 256 268 279 278 283 279 272 264 263 261 261 264 270 274 271 270 271 270 272 249 227 219 220 220 209 207 208 207 210 211 207 207 212 209 203 202 204 200 192 185 180 178 178 181 180 183 183 182 181 180
296 291 285 289 288 286 287 287 286 284 283 283 281 281 280 276 273 269 268 266 269 269 269 269 270 272 272 269 267 266 264 263 264 261 259 264 265 268 279 277 280 285 274 259 254 257 256 260 263 267 269 269 273 271 274 247 218 216 216 209 206 206 207 208 210 207 204 207 207 200 201 201 200 193 185 179 179 178 182 181 183 183 182 179 179
292 293 290 294 292 290 287 287 284 281 277 276 278 278 278 276 272 269 269 267 265 268 267 269 268 271 270 268 265 266 264 262 262 263 264 266 268 274 276 281 277 270 277 274 263 264 264 265 265 264 266 265 262 265 267 267 237 213 210 210 204 206 206 207 208 209 206 205 207 205 200 195 196 194 184 180 179 180 182 183 182 183 183 181 179
304 304 300 302 299 294 291 286 286 281 279 278 277 276 276 273 271 270 267 266 266 264 266 267 271 267 270 269 268 265 266 265 262 258 258 259 260 268 269 275 277 277 272 270 269 263 256 256 261 261 266 265 264 262 263 266 263 221 205 208 206 203 205 206 206 208 207 204 205 205 200 201 195 191 187 185 181 182 182 182 182 182 182 182 179
296 294 296 298 292 287 286 284 278 278 278 277 276 275 273 272 273 271 268 269 266 266 270 270 269 266 266 268 266 265 262 263 264 267 270 275 271 268 277 273 269 274 273 269 263 265 255 243 251 255 255 254 256 255 251 251 258 243 209 207 203 204 203 203 205 206 208 207 206 203 192 194 201 195 188 187 186 184 179 181 181 180 180 181 176
288 290 292 290 287 287 285 283 281 278 277 275 274 273 271 271 271 273 277 274 273 272 269 271 267 266 263 260 265 262 262 261 265 267 268 263 262 266 271 277 277 271 273 263 260 253 259 255 247 257 258 262 261 262 264 265 263 251 218 208 205 202 204 204 204 205 205 207 206 203 195 193 196 193 191 187 182 180 177 180 180 180 180 177 178
289 289 289 289 290 288 285 280 279 276 275 274 274 272 273 274 275 277 276 276 273 272 270 269 267 265 265 262 263 263 261 260 259 260 261 262 263 265 264 268 276 281 275 269 257 259 241 258 264 240 254 255 255 248 254 255 256 256 222 209 209 204 204 204 204 204 205 204 205 203 200 195 202 199 187 187 183 180 179 178 179 179 177 176 175
289 291 290 290 288 287 288 285 282 281 278 277 276 277 277 278 275 276 274 277 273 272 273 267 268 266 263 262 262 265 268 269 267 265 264 262 262 263 262 265 271 278 277 272 262 262 241 215 265 264 225 253 257 263 261 259 260 257 233 216 210 208 202 205 204 206 205 204 203 203 201 201 199 205 199 186 180 178 177 175 175 177 174 174 175
291 291 293 292 290 287 286 288 286 285 284 282 280 281 279 278 275 273 275 276 274 273 271 267 268 266 266 264 262 264 262 259 256 254 253 254 257 256 259 259 261 264 269 269 269 246 263 233 240 270 267 268 279 287 290 287 290 278 246 220 210 209 203 203 205 204 204 203 202 200 199 198 199 200 198 188 177 171 175 174 174 176 173 172 174
293 294 294 292 291 291 290 290 290 288 288 286 286 284 279 279 277 277 276 276 272 274 271 270 268 267 264 262 262 260 263 267 272 277 275 273 264 260 255 251 254 255 263 263 266 250 231 256 252 252 275 278 282 290 290 288 294 291 261 224 213 207 205 201 202 202 201 200 197 194 192 188 184 181 186 181 175 169 169 174 172 173 173 172 173
293 293 291 291 293 294 295 293 293 294 290 289 288 284 283 278 279 278 279 279 275 270 273 268 270 266 266 265 263 262 264 269 273 275 280 274 272 271 271 269 265 263 264 257 251 262 216 254 253 266 268 285 288 285 285 287 285 287 266 232 211 207 204 206 201 200 199 197 193 190 183 179 175 171 171 176 176 173 169 172 172 171 171 171 171
294 292 292 294 296 296 297 297 297 297 296 294 293 288 285 281 281 281 283 280 277 273 271 272 268 266 267 266 265 265 268 268 266 270 265 263 262 259 254 253 259 264 263 253 251 259 258 248 265 266 273 279 282 275 283 287 293 290 281 251 219 205 202 204 201 198 195 192 190 186 183 176 172 169 168 173 176 174 170 170 170 170 169 169 171
292 294 296 298 299 300 300 299 298 296 294 291 292 291 290 288 285 282 282 282 277 277 275 271 271 269 268 267 267 267 266 267 266 266 270 277 275 268 257 253 260 264 264 259 250 254 264 249 265 262 273 264 275 278 281 292 292 295 290 283 235 201 199 199 196 195 190 187 183 179 177 178 172 169 169 171 174 170 169 170 167 168 169 168 170
298 299 303 305 305 303 301 300 299 298 297 295 294 291 289 288 287 284 281 281 279 276 276 273 273 272 270 268 268 270 270 268 267 269 271 275 276 275 278 277 271 267 267 260 254 252 258 262 259 270 267 269 264 286 285 283 287 291 289 286 256 206 196 195 193 190 185 180 176 174 172 173 172 169 168 169 172 171 167 166 167 167 169 169 171
307 308 308 306 304 302 301 300 298 297 296 294 294 290 289 287 284 282 283 281 278 276 276 276 275 273 270 270 268 268 269 269 270 271 272 269 270 266 264 266 266 267 263 261 249 249 256 269 249 260 267 274 277 281 287 286 289 287 279 284 268 212 184 183 183 185 181 174 172 168 168 168 167 166 165 166 166 169 166 166 166 166 168 168 171
312 312 307 305 302 303 300 300 298 296 295 293 293 291 288 285 282 284 283 282 279 276 275 275 274 272 272 271 273 272 270 270 272 272 272 274 275 280 275 267 268 275 278 263 250 246 253 260 264 257 268 266 272 283 284 292 290 285 285 278 268 226 173 170 161 164 172 170 166 166 165 163 164 164 164 165 163 165 166 167 168 166 166 167 169
313 307 304 303 303 301 299 298 297 294 294 292 291 291 288 286 285 283 283 281 279 277 277 275 273 271 270 269 269 269 268 267 270 272 273 275 277 270 271 273 272 272 274 269 253 246 250 258 264 266 259 264 276 263 270 274 280 286 288 285 267 236 178 159 155 151 149 154 154 156 158 159 159 162 164 163 162 163 165 167 167 166 166 166 168
309 304 303 303 301 300 299 298 299 299 297 293 295 291 287 286 286 284 281 281 278 277 274 272 270 269 267 267 266 264 264 265 267 268 272 274 271 271 269 273 280 283 284 283 264 249 252 263 266 263 263 258 257 271 257 258 263 264 275 287 270 231 202 159 155 156 151 153 155 153 153 154 159 160 162 163 164 164 166 168 167 166 167 167 168
303 301 304 305 300 301 299 299 295 293 294 295 293 292 291 286 285 281 278 276 273 269 266 263 263 261 258 258 257 257 260 261 261 261 264 265 266 268 269 269 269 267 267 273 273 252 250 257 264 267 262 264 254 253 262 254 263 259 249 257 265 231 192 175 160 153 158 154 158 162 161 158 160 161 160 162 165 166 166 167 167 167 168 167 167
298 299 299 297 300 297 290 289 292 296 297 293 291 288 293 287 283 280 277 272 266 265 265 261 255 254 256 253 252 255 250 261 260 263 261 261 263 267 268 270 268 255 252 253 263 258 245 250 261 272 284 279 266 259 239 231 237 252 256 251 261 232 191 164 175 161 158 159 159 160 165 162 159 162 162 162 169 167 170 171 169 169 169 168 168
300 298 292 293 289 290 292 301 302 299 297 294 290 290 291 292 292 289 286 281 279 276 270 270 261 256 252 254 247 251 257 264 265 264 264 264 262 261 263 264 267 277 281 282 267 246 246 248 254 261 263 261 269 265 255 244 244 255 255 251 259 240 194 170 161 175 161 156 157 162 165 165 159 161 165 168 170 169 171 173 177 170 170 169 169
298 292 294 294 293 299 302 303 305 302 297 295 293 295 296 296 296 294 292 289 283 280 272 270 271 270 262 255 251 251 254 260 262 263 262 263 264 265 265 261 258 257 265 263 269 269 239 236 246 248 248 258 261 268 273 273 251 246 249 249 251 236 201 170 167 163 174 156 160 159 163 165 160 162 166 167 171 175 173 175 172 168 167 167 167
296 293 293 296 304 306 305 305 302 301 298 294 297 299 299 299 297 294 291 288 287 282 281 273 274 267 270 264 265 262 251 256 251 255 254 262 266 266 268 267 264 259 251 250 256 263 258 250 245 245 248 247 256 256 269 283 278 258 246 250 252 239 203 176 161 168 173 162 155 160 161 166 164 162 167 171 172 176 173 170 168 169 169 168 167
296 300 302 304 305 306 304 304 301 300 297 295 300 301 301 300 299 298 294 289 285 283 283 280 276 269 271 266 267 259 258 254 260 257 261 260 265 262 268 272 269 258 254 253 251 251 258 256 250 251 244 246 253 251 247 268 292 293 264 244 248 238 212 177 168 156 166 169 155 159 163 168 166 166 170 174 171 169 166 168 171 170 170 170 169
302 299 302 304 304 303 301 298 297 294 291 293 298 302 304 304 303 301 296 293 289 288 287 284 282 276 268 267 259 264 258 258 253 254 256 252 259 258 266 263 259 260 256 249 249 248 243 245 245 246 247 228 244 252 258 272 285 282 292 278 248 240 217 185 168 164 160 165 163 152 155 169 171 166 172 173 170 170 166 173 175 173 173 172 171
308 306 307 305 301 295 292 292 291 289 287 295 302 304 307 307 305 305 300 300 297 292 288 284 283 279 271 266 259 262 264 259 257 248 254 248 249 253 258 263 269 257 243 241 241 240 239 239 239 241 246 241 242 252 263 264 257 263 267 279 281 254 220 192 161 163 164 168 159 155 162 169 171 169 174 169 169 170 171 173 175 174 172 172 172
298 299 300 297 295 294 291 290 289 287 286 296 302 304 308 311 310 310 306 298 291 287 285 286 285 285 287 283 277 269 263 259 254 255 257 252 249 250 254 258 258 261 259 251 241 232 232 234 231 233 240 242 243 244 251 256 263 269 282 288 285 263 220 187 165 166 165 171 164 158 157 165 170 168 168 163 163 165 166 171 176 174 173 171 173
305 303 299 296 292 291 290 288 287 288 286 293 300 308 312 312 313 307 299 290 289 291 290 292 293 291 285 281 279 276 272 266 259 258 259 257 253 251 250 253 259 258 257 257 261 257 247 241 241 238 243 248 248 246 252 256 259 261 280 285 275 276 226 182 172 168 167 161 172 161 151 157 171 166 157 163 167 163 164 174 176 175 173 172 172
304 300 299 293 285 283 289 290 285 286 288 295 302 308 314 314 314 309 304 302 295 297 296 293 290 284 280 280 279 277 273 269 266 260 261 260 257 252 250 253 257 260 258 258 256 250 253 254 251 246 247 250 253 256 256 258 259 257 242 257 267 274 249 187 169 165 152 162 174 158 150 163 156 157 148 140 135 160 164 169 173 176 172 172 172
296 297 296 292 290 285 285 285 290 294 287 293 300 309 316 317 319 314 309 301 300 298 296 294 284 283 281 280 278 275 272 268 269 266 259 257 252 248 247 248 251 251 249 248 246 246 247 248 244 242 245 249 252 250 250 251 252 252 245 246 260 253 250 202 164 160 157 172 171 162 149 154 152 153 145 143 159 147 170 165 173 175 176 170 172